Location: *
(34.0486°S, 61.7880°E)
Time: 16:12:27
(UTC+00:00)

Feng Yun 1-1 Rocket - Pass Details

Date: 01 April 2020
Orbit: 830 x 933 km, 99.2° (Epoch: 26 May)

Event Time Altitude Azimuth Distance (km) Brightness Sun altitude
Rises 14:18:24 0° 165° (SSE) 3,610 7.3 -7.2°
Reaches altitude 10° 14:20:52 10° 163° (SSE) 2,653 6.6 -7.8°
Maximum altitude 14:26:50 77° 77° (ENE) 947 4.3 -9.0°
Drops below altitude 10° 14:32:34 10° 351° (N) 2,566 6.8 -10.2°
Sets 14:34:56 0° 349° (N) 3,483 7.5 -10.7°
